Flag for U.S.A. Weather past 2 weeks in Lafayette, Indiana, U.S.A.

Now
49 °F

Sunny.


Feels Like: 44 °F
Forecast: 36 / 65 °F
Wind: 14 mph from East

Location: Purdue University Airport


UV Index: 5 (Moderate)

Visibility: 10 mi


Pressure: 30.36 "Hg

Humidity: 66%

Dew point: 38 °F

Location of LafayetteLocation

Historic Weather in Lafayette

°F

Lafayette temperature yesterday

Maximum temperature yesterday: 66 °F (at 3:54 PM)
Minimum temperature yesterday: 44 °F (at 11:54 PM)
Average temperature yesterday: 55 °F

Past Weeks' High & Low Weather Summary

 TemperatureHumidityPressure
High76 °F (Apr 12, 3:54 PM)100% (Apr 8, 6:54 AM)30.37 "Hg (Apr 8, 6:54 AM)
Low27 °F (Apr 16, 1:54 AM)20% (Apr 11, 4:54 PM)29.45 "Hg (Apr 14, 3:54 AM)
Average48 °F64%29.99 "Hg
* Reported Apr 4 8:57 AM — Apr 19 8:54 AM, Lafayette, Weather by CustomWeather, © 2014

Note: Actual official high and low records may vary slightly from our data, if they occured in-between our weather recording intervals... More about our weather records

Advertising

Historic Weather Conditions — Data for Previous 24 hours

 ConditionsComfort  
Time TempWeatherWind HumidityBarometerVisibility
8:54 AM
Apr 19
43 °FSunny.10 mph65%30.36 "Hg10 mi
7:54 AM37 °FClear.7 mph70%30.34 "Hg10 mi
6:54 AM36 °FClear.3 mph67%30.33 "Hg10 mi
5:54 AM36 °FClear.6 mph64%30.31 "Hg10 mi
4:54 AM36 °FClear.5 mph67%30.32 "Hg10 mi
3:54 AM38 °FClear.7 mph65%30.31 "Hg10 mi
2:54 AM39 °FClear.6 mph67%30.30 "Hg10 mi
1:54 AM41 °FClear.8 mph67%30.32 "Hg10 mi
12:54 AM42 °FClear.8 mph65%30.33 "Hg10 mi
11:54 PM
Apr 18
44 °FClear.7 mph63%30.33 "Hg10 mi
10:54 PM46 °FClear.7 mph68%30.32 "Hg10 mi
9:54 PM50 °FClear.13 mph57%30.29 "Hg10 mi
8:54 PM54 °FSunny.15 mph47%30.26 "Hg10 mi
7:54 PM59 °FSunny.15 mph41%30.24 "Hg10 mi
6:54 PM64 °FSunny.12 mph38%30.24 "Hg10 mi
5:54 PM66 °FSunny.12 mph32%30.23 "Hg10 mi
4:54 PM66 °FScattered clouds.5 mph36%30.24 "Hg10 mi
3:54 PM66 °FPassing clouds.10 mph37%30.27 "Hg10 mi
2:54 PM65 °FPartly sunny.8 mph40%30.28 "Hg10 mi
1:54 PM65 °FSunny.9 mph40%30.28 "Hg10 mi
12:54 PM63 °FSunny.8 mph43%30.29 "Hg10 mi
11:54 AM61 °FSunny.5 mph48%30.29 "Hg10 mi
10:54 AM58 °FSunny.No wind51%30.29 "Hg10 mi
Weather by CustomWeather, © 2014

See weather overview